Miscellaneous Local Product
Issued by NWS North Platte, NE

Home | Current Version | Previous Version | Text Only | Print | Product List | Glossary On
Versions: 1 2 3 4 5 6 7 8 9 10 11 12 13 14 15 16 17 18 19 20 21 22 23 24 25 26 27 28 29 30 31 32 33 34 35 36 37 38 39 40 41 42 43 44 45 46 47 48 49 50
000
AXUS43 KLBF 290710
MISLBF


WESTERN AND NORTH CENTRAL NEBRASKA HOURLY WEATHER ROUNDUP
NATIONAL WEATHER SERVICE NORTH PLATTE NE
200 AM CDT THU SEP 29 2016

NOTE: "FAIR" INDICATES FEW OR NO CLOUDS BELOW 12,000 FEET WITH NO
SIGNIFICANT WEATHER AND/OR OBSTRUCTIONS TO VISIBILITY.

NOTE: STATIONS NOT REPORTING VARIABLES SUCH AS SKY/WEATHER OR
PRESSURE ARE PROVIDED BY RAWS AND APRS NETWORKS AND ARE NOT UNDER
NATIONAL WEATHER SERVICE QUALITY CONTROL.

...OBSERVATIONS IN AND NEAR THE EASTERN PANHANDLE OF NEBRASKA...

CITY           SKY/WX    TMP DP  RH WIND       PRES   REMARKS
PINE RIDGE     CLEAR     54  32  43 CALM      30.35S
CHADRON        CLEAR     58  35  42 SE5       30.34R
ALLIANCE       CLEAR     46  39  76 SE6       30.36S
SIDNEY         CLEAR     51  37  58 S12       30.39R
CRESCENT LAKE    N/A     49  37  63 S6          N/A
$$

...OBSERVATIONS IN NORTHERN NEBRASKA AND FAR SOUTHERN SOUTH DAKOTA...

CITY           SKY/WX    TMP DP  RH WIND       PRES   REMARKS
WINNER         FAIR      46  42  86 S6        30.38R
VALENTINE      CLOUDY    46  40  79 CALM      30.38S
THEDFORD       CLOUDY    42  39  89 CALM      30.39S
AINSWORTH      CLOUDY    42  40  95 S5        30.38S
O`NEILL        CLOUDY    45  42  88 CALM      30.39S
ORD            LGT RAIN  39  35  86 CALM      30.38R
BROKEN BOW     CLOUDY    40  38  93 N3        30.38S
VALENTINE NWR    N/A     42  40  92 CALM        N/A
BUTTE            N/A     47  44  88 SE6         N/A
HALSEY           N/A     47  41  81 SE3         N/A
EWING            N/A     43  41  93 CALM        N/A
$$

...OBSERVATIONS IN SOUTHWEST NEBRASKA AND FAR NORTHEAST COLORADO...

CITY           SKY/WX    TMP DP  RH WIND       PRES   REMARKS
WRAY           FAIR      54  37  54 S6        30.38S
HOLYOKE        FAIR      45  36  70 CALM      30.38S
IMPERIAL       CLEAR     48  35  60 S5        30.38R
OGALLALA       CLEAR     48  37  65 E3        30.38S
NORTH PLATTE   CLOUDY    42  38  85 E5        30.38S
MCCOOK         CLEAR     48  38  68 CALM      30.37R HAZE
LEXINGTON      CLOUDY    44  40  86 CALM      30.37S
STAPLETON        N/A     43  39  86 CALM        N/A
GOTHENBURG       N/A     49  39  69 CALM        N/A
CALLAWAY         N/A     46  41  84 E6          N/A
$$

...OBSERVATIONS IN CENTRAL LINCOLN COUNTY AREA...

CITY           SKY/WX    TMP DP  RH WIND       PRES   REMARKS
N.P. AIRPORT   CLOUDY    42  38  85 E5        30.38S
N.P. DOWNTOWN    N/A     49  41  75 CALM        N/A
N.P. SOUTHEAST   N/A     46  39  78 CALM        N/A
N.P. HILLCREST   N/A     48  41  77 E7          N/A
$$

...SOME OBSERVATIONS FROM AROUND THE REGION...

CITY           SKY/WX    TMP DP  RH WIND       PRES   REMARKS
DENVER         CLOUDY    54  31  41 S13       30.36F
LARAMIE        CLOUDY    51  35  54 S15       30.43S
CHEYENNE       CLEAR     51  35  54 S7        30.43F
SCOTTSBLUFF    CLEAR     54  41  61 E12       30.36R
RAPID CITY     CLEAR     47  37  68 SE5       30.34F
BISMARCK       CLEAR     43  42  97 NE6       30.39R
PIERRE         CLEAR     43  38  82 E8        30.36S
SIOUX FALLS    CLOUDY    46  44  93 CALM      30.40S
OMAHA          CLEAR     48  44  86 NW6       30.35S
GRAND ISLAND   CLOUDY    41  37  86 NE3       30.37S
KANSAS CITY    PTCLDY    50  45  83 N6        30.28S
WICHITA        CLEAR     55  47  74 NE9       30.29S
OKLAHOMA CITY  PTCLDY    60  47  61 NE13      30.25S
DALLAS         PTCLDY    72  52  49 N16       30.13R
AMARILLO       CLEAR     55  47  74 E8        30.33R
DODGE CITY     CLOUDY    49  42  77 E7        30.33S
HAYS           CLEAR     48  36  61 NE9       30.34S
GOODLAND       CLEAR     47  38  71 S9        30.37S
$$




USA.gov is the U.S. government's official web portal to all federal, state and local government web resources and services.